Total_Precipitation_Accumulation
0.28 0.31 0.30 0.24 0.22 0.23 0.24 0.19 0.22 0.20 0.20 0.20 0.16 0.13 0.12 0.13 0.16 0.17 0.10 0.05 0.05 0.06 0.02 0.02 0.00 0.00 0.00 0.00 0.00 0.00 0.00 0.00 0.00 0.00 0.00 0.00 0.00 0.00 0.00 0.00 0.00 0.00 0.00
0.38 0.47 0.46 0.43 0.38 0.37 0.31 0.20 0.20 0.19 0.24 0.20 0.16 0.20 0.22 0.19 0.21 0.27 0.28 0.22 0.16 0.15 0.14 0.12 0.05 0.00 0.00 0.00 0.00 0.00 0.00 0.00 0.00 0.00 0.00 0.00 0.00 0.00 0.00 0.00 0.00 0.00 0.00
0.33 0.35 0.38 0.35 0.33 0.37 0.36 0.38 0.26 0.29 0.31 0.25 0.23 0.24 0.22 0.22 0.21 0.21 0.23 0.21 0.22 0.25 0.26 0.24 0.20 0.08 0.02 0.00 0.00 0.00 0.00 0.00 0.00 0.00 0.00 0.00 0.00 0.00 0.00 0.00 0.00 0.00 0.00
0.32 0.31 0.24 0.26 0.31 0.32 0.33 0.34 0.33 0.36 0.33 0.33 0.31 0.31 0.32 0.30 0.24 0.26 0.31 0.33 0.32 0.28 0.25 0.21 0.18 0.13 0.07 0.02 0.00 0.00 0.00 0.01 0.01 0.00 0.00 0.00 0.00 0.00 0.00 0.00 0.00 0.00 0.00
0.63 0.48 0.40 0.34 0.31 0.40 0.47 0.38 0.32 0.33 0.37 0.42 0.43 0.32 0.31 0.35 0.37 0.32 0.29 0.28 0.32 0.32 0.30 0.22 0.14 0.10 0.06 0.04 0.02 0.02 0.02 0.03 0.01 0.00 0.00 0.00 0.00 0.00 0.00 0.00 0.00 0.00 0.00
0.63 0.58 0.53 0.51 0.49 0.51 0.56 0.54 0.41 0.41 0.34 0.32 0.44 0.44 0.41 0.38 0.34 0.34 0.32 0.29 0.22 0.17 0.14 0.12 0.11 0.11 0.09 0.04 0.03 0.04 0.05 0.03 0.01 0.00 0.00 0.00 0.00 0.00 0.00 0.00 0.00 0.00 0.01
0.64 0.53 0.41 0.45 0.52 0.54 0.58 0.68 0.70 0.58 0.46 0.44 0.39 0.35 0.39 0.30 0.30 0.32 0.28 0.26 0.24 0.16 0.12 0.11 0.11 0.11 0.10 0.07 0.06 0.07 0.05 0.00 0.00 0.00 0.00 0.00 0.00 0.00 0.00 0.00 0.00 0.00 0.00
0.51 0.67 0.51 0.43 0.48 0.52 0.59 0.56 0.59 0.62 0.56 0.59 0.60 0.47 0.32 0.32 0.33 0.27 0.28 0.25 0.25 0.21 0.16 0.12 0.10 0.11 0.08 0.05 0.04 0.05 0.01 0.00 0.00 0.00 0.00 0.00 0.00 0.00 0.00 0.00 0.00 0.00 0.00
0.62 0.66 0.68 0.46 0.37 0.42 0.47 0.42 0.41 0.46 0.50 0.48 0.44 0.42 0.36 0.36 0.36 0.33 0.31 0.27 0.26 0.22 0.16 0.14 0.11 0.07 0.05 0.04 0.02 0.01 0.00 0.01 0.01 0.00 0.00 0.00 0.00 0.00 0.00 0.00 0.00 0.00 0.00
0.75 0.62 0.62 0.55 0.35 0.36 0.33 0.32 0.37 0.35 0.38 0.38 0.34 0.30 0.34 0.36 0.32 0.27 0.23 0.21 0.22 0.17 0.14 0.10 0.07 0.05 0.05 0.03 0.01 0.00 0.00 0.00 0.00 0.00 0.00 0.00 0.00 0.00 0.00 0.00 0.00 0.00 0.00
0.35 0.67 0.64 0.65 0.42 0.36 0.32 0.31 0.30 0.34 0.35 0.36 0.31 0.31 0.27 0.22 0.19 0.17 0.15 0.14 0.11 0.12 0.10 0.07 0.05 0.04 0.02 0.00 0.00 0.00 0.00 0.00 0.00 0.00 0.00 0.00 0.00 0.00 0.00 0.00 0.00 0.00 0.00
0.04 0.26 0.58 0.60 0.48 0.39 0.36 0.32 0.31 0.27 0.27 0.30 0.32 0.30 0.20 0.16 0.13 0.11 0.10 0.08 0.07 0.07 0.05 0.03 0.02 0.01 0.00 0.00 0.00 0.00 0.00 0.00 0.00 0.00 0.00 0.00 0.00 0.00 0.00 0.00 0.00 0.00 0.00
0.02 0.04 0.26 0.57 0.53 0.34 0.46 0.41 0.29 0.25 0.21 0.25 0.20 0.14 0.15 0.15 0.13 0.09 0.07 0.07 0.07 0.06 0.04 0.02 0.01 0.00 0.00 0.00 0.00 0.00 0.00 0.00 0.00 0.00 0.00 0.00 0.00 0.00 0.00 0.00 0.00 0.00 0.00
0.01 0.03 0.05 0.24 0.61 0.49 0.39 0.33 0.22 0.17 0.16 0.17 0.16 0.12 0.12 0.14 0.13 0.12 0.10 0.06 0.04 0.03 0.01 0.01 0.00 0.00 0.00 0.00 0.00 0.00 0.00 0.00 0.00 0.00 0.00 0.00 0.00 0.00 0.00 0.00 0.00 0.00 0.00
0.03 0.05 0.07 0.05 0.19 0.50 0.50 0.40 0.20 0.11 0.07 0.07 0.08 0.05 0.08 0.12 0.09 0.05 0.04 0.02 0.01 0.00 0.00 0.01 0.00 0.00 0.00 0.01 0.00 0.00 0.00 0.00 0.00 0.00 0.00 0.00 0.00 0.00 0.00 0.00 0.00 0.00 0.00
0.09 0.07 0.15 0.12 0.12 0.25 0.44 0.60 0.51 0.19 0.08 0.08 0.05 0.04 0.08 0.08 0.07 0.07 0.06 0.02 0.01 0.00 0.00 0.00 0.00 0.00 0.00 0.00 0.00 0.00 0.00 0.00 0.00 0.00 0.00 0.00 0.00 0.00 0.00 0.00 0.00 0.00 0.00
0.13 0.14 0.16 0.25 0.16 0.15 0.25 0.29 0.44 0.39 0.19 0.07 0.04 0.03 0.02 0.04 0.04 0.03 0.02 0.01 0.00 0.00 0.00 0.00 0.01 0.01 0.00 0.00 0.00 0.00 0.00 0.00 0.00 0.00 0.00 0.00 0.00 0.00 0.00 0.00 0.00 0.00 0.00
0.18 0.16 0.14 0.18 0.22 0.17 0.15 0.20 0.32 0.27 0.24 0.21 0.09 0.01 0.00 0.00 0.00 0.01 0.01 0.02 0.02 0.01 0.00 0.00 0.01 0.01 0.00 0.00 0.00 0.00 0.00 0.00 0.00 0.00 0.00 0.00 0.00 0.00 0.00 0.00 0.00 0.00 0.00
0.23 0.16 0.13 0.18 0.25 0.29 0.21 0.15 0.26 0.34 0.25 0.14 0.11 0.11 0.04 0.00 0.01 0.02 0.01 0.02 0.01 0.00 0.00 0.00 0.00 0.00 0.00 0.00 0.00 0.00 0.00 0.00 0.00 0.00 0.00 0.00 0.00 0.00 0.00 0.00 0.00 0.00 0.00
0.32 0.34 0.25 0.22 0.28 0.32 0.30 0.18 0.18 0.24 0.23 0.21 0.15 0.07 0.11 0.11 0.17 0.16 0.07 0.03 0.01 0.00 0.00 0.00 0.00 0.00 0.00 0.00 0.00 0.00 0.01 0.01 0.00 0.00 0.00 0.01 0.01 0.01 0.01 0.01 0.01 0.01 0.00
0.29 0.35 0.29 0.18 0.17 0.20 0.21 0.20 0.16 0.14 0.16 0.18 0.12 0.07 0.03 0.03 0.04 0.05 0.04 0.03 0.01 0.00 0.00 0.00 0.00 0.00 0.00 0.00 0.00 0.00 0.01 0.01 0.01 0.00 0.00 0.01 0.01 0.02 0.01 0.01 0.01 0.01 0.00
0.29 0.28 0.31 0.25 0.15 0.17 0.17 0.19 0.19 0.16 0.16 0.14 0.15 0.14 0.08 0.06 0.03 0.02 0.02 0.02 0.00 0.00 0.00 0.00 0.00 0.00 0.00 0.00 0.00 0.01 0.01 0.02 0.02 0.02 0.02 0.02 0.02 0.02 0.02 0.02 0.02 0.02 0.00
0.29 0.29 0.29 0.33 0.24 0.17 0.16 0.16 0.17 0.17 0.17 0.13 0.12 0.13 0.09 0.04 0.02 0.01 0.01 0.01 0.00 0.00 0.01 0.00 0.01 0.01 0.01 0.01 0.02 0.02 0.03 0.02 0.02 0.04 0.04 0.04 0.03 0.03 0.03 0.03 0.03 0.02 0.02
0.36 0.35 0.30 0.23 0.21 0.17 0.13 0.11 0.11 0.14 0.13 0.12 0.10 0.08 0.04 0.03 0.01 0.01 0.01 0.02 0.01 0.01 0.02 0.02 0.02 0.03 0.03 0.04 0.04 0.03 0.03 0.03 0.03 0.03 0.04 0.05 0.05 0.03 0.03 0.03 0.03 0.03 0.02
0.39 0.41 0.36 0.29 0.23 0.17 0.13 0.12 0.10 0.10 0.11 0.10 0.09 0.06 0.04 0.04 0.03 0.02 0.03 0.03 0.03 0.04 0.04 0.03 0.03 0.03 0.03 0.02 0.02 0.01 0.01 0.01 0.01 0.01 0.01 0.03 0.04 0.04 0.03 0.02 0.02 0.04 0.02
0.29 0.30 0.30 0.30 0.29 0.27 0.22 0.17 0.12 0.09 0.08 0.08 0.08 0.06 0.05 0.04 0.03 0.03 0.04 0.05 0.04 0.04 0.04 0.03 0.04 0.03 0.03 0.03 0.02 0.02 0.01 0.01 0.01 0.00 0.01 0.01 0.02 0.03 0.03 0.03 0.02 0.03 0.02